Regional Weather Roundup
Issued by NWS

Home | Current Version | Previous Version | Graphics & Text | Print | Product List | Glossary On
Versions: 1 2 3 4 5 6 7 8 9 10 11 12 13 14 15 16 17 18 19 20 21 22 23 24 25 26 27 28 29 30 31 32 33 34 35 36 37 38 39 40 41 42 43 44 45 46 47 48 49 50
000
ASUS43 KIND 252209
RWRIN

WEATHER ROUNDUP FOR INDIANA
NATIONAL WEATHER SERVICE INDIANAPOLIS IN
600 PM EDT WED MAY 25 2016

NOTE: "FAIR" INDICATES FEW OR NO CLOUDS BELOW 12,000 FEET WITH NO
SIGNIFICANT WEATHER AND/OR OBSTRUCTIONS TO VISIBILITY.

* - STATION DOES NOT REPORT WEATHER SUCH AS PRECIPITATION OR FOG.

+ - STATION NOT QUALITY CONTROLLED BY THE NATIONAL WEATHER SERVICE.
    USE DATA WITH CAUTION...ESPECIALLY DEWPOINT AND RELATIVE
    HUMIDITY OBSERVATIONS.

INZ001>003-010>013-019-020-252300-
NORTHWEST INDIANA

CITY           SKY/WX    TMP DP  RH WIND       PRES   REMARKS
GARY /AIRPORT/ PTSUNNY   90  66  45 SE12      29.90F
KNOX *+          N/A     86  41  20 S15         N/A
LA PORTE +     MOSUNNY   88  55  32 S12G17    29.93S
MICHIGAN CITY+ MOSUNNY   84  57  39 S8G16     29.92S
MONTICELLO +   PTSUNNY   85  56  37 S15G22    29.94F
RENSSELAER +   CLOUDY    86  57  37 S17G25    29.93F
VALPARAISO     MOSUNNY   86  58  38 S13       29.92F

$$

LMZ046-743>745-252300-
SOUTHERN LAKE MICHIGAN

STATION/POSITION TIME  TEMP    WIND        PRES    WAVE
                       AIR SEA DIR/SP/G            HT
                 (UTC) (F)     (DEG/KT/KT) (MB)    (FT)
BURNS HARBOR     2100   86     200/ 10/ 16 1012.9F
MICHIGAN CITY    2100   78      10/  5/  8   N/A
5NW MICH CITY    2200   68 61   50/  6/ 10   N/A     0

$$

INZ004-005-014>016-021>024-252300-
NORTH CENTRAL INDIANA

CITY           SKY/WX    TMP DP  RH WIND       PRES   REMARKS
ELKHART        CLOUDY    86  66  51 S12       29.95F
GOSHEN         PTSUNNY   86  57  37 SE16      29.94F
LOGANSPORT +   MOSUNNY   82  59  44 SW15      29.96F
PERU/GRISSOM   MOSUNNY   84  62  47 SW16      29.95F
ROCHESTER +    SUNNY     86  61  42 S9G16     29.95F
SOUTH BEND     MOSUNNY   84  59  42 SE16      29.93F
WARSAW +       MOSUNNY   84  59  42 S6        29.95F

$$

INZ006>009-017-018-025>027-252300-
NORTHEAST INDIANA

CITY           SKY/WX    TMP DP  RH WIND       PRES   REMARKS
ANGOLA *+      SUNNY     82  61  47 S12       29.99F
AUBURN +       MOSUNNY   84  55  37 S6        29.99F
FORT WAYNE     PTSUNNY   85  58  39 S13       29.98F
HUNTINGTON +   PTSUNNY  N/A N/A N/A SW12      29.97F

$$

INZ028-029-035-036-043>045-051>053-252300-
WEST CENTRAL INDIANA

CITY           SKY/WX    TMP DP  RH WIND       PRES   REMARKS
CRAWFORDSVL +  MOSUNNY   82  64  54 SW18      29.97F
GREENCASTLE +  SUNNY     79  68  69 S9G17     30.01F
LAFAYETTE      PTSUNNY   83  63  50 S16G24    29.94F
TERRE HAUTE    MOSUNNY   79  63  57 S15       29.99F

$$

INZ030>032-037>040-046>048-054>057-064-065-252300-
CENTRAL INDIANA

CITY           SKY/WX    TMP DP  RH WIND       PRES   REMARKS
CP ATTERBURY + MOSUNNY   82  63  51 SW13      30.02F
COLUMBUS       SUNNY     82  64  54 SW17      30.03S
FRANKFORT +      N/A     84  46  26 SW12G18   30.00F
GREENWOOD *+   MOSUNNY   82  61  47 SW15      30.02F
INDIANAPOLIS   PTSUNNY   82  62  50 SW21      29.99F
-EAGLE CREEK   PTSUNNY   83  61  47 S13G20    29.99F
KOKOMO *+      PTSUNNY   82  61  47 S14       29.97F
MARION +       MOSUNNY   84  58  41 SW12G17   29.99F
SHELBYVILLE    MOSUNNY   84  62  47 S17G23    30.00F
ZIONSVILLE +   MOSUNNY   82  62  49 S14G20    30.00F

$$

INZ033-034-041-042-049-050-058-059-252300-
EAST CENTRAL INDIANA

CITY           SKY/WX    TMP DP  RH WIND       PRES   REMARKS
MUNCIE         CLOUDY    85  59  41 SW9G18    30.00F

$$

INZ060-061-067>069-081>083-085>088-252300-
SOUTHWEST INDIANA

CITY           SKY/WX    TMP DP  RH WIND       PRES   REMARKS
EVANSVILLE     PTSUNNY   71  65  81 VRB7      30.01F
HUNTINGBURG *+ CLOUDY    73  63  68 S9G16     30.04F
WASHINGTON +   CLOUDY    75  65  69 S12       30.02F

$$

INZ062-063-066-070>080-084-089>092-252300-
SOUTH CENTRAL AND SOUTHEAST INDIANA

CITY           SKY/WX    TMP DP  RH WIND       PRES   REMARKS
BEDFORD +      PTSUNNY   79  72  78 SW8       30.03F
BLOOMINGTON    CLOUDY    78  63  59 S12       30.03F
MADISON *+     MOSUNNY   79  63  57 S6        30.08S
NORTH VERNON + CLOUDY    82  70  65 S5        30.05F
SEYMOUR +      CLOUDY    82  64  54 S13       30.03

$$





USA.gov is the U.S. government's official web portal to all federal, state and local government web resources and services.